Location: D�derode
(51.8092°N, 10.1065°E)
Time: 06:01:11
(UTC+00:00)

Cosmos 1869 Rocket - Pass Details

Date: 24 April 2021
Orbit: 604 x 634 km, 82.5° (Epoch: 11 May)

Event Time Altitude Azimuth Distance (km) Brightness Sun altitude
Rises 22:06:35 0° 358° (N) 2,893 8.3 -23.2°
Reaches altitude 10° 22:09:17 10° 15° (NNE) 1,978 6.9 -23.3°
Maximum altitude 22:12:39 21° 65° (ENE) 1,375 5.4 -23.5°
Enters shadow 22:13:13 21° 77° (ENE) 1,395 5.3 -23.5°
